DW2612 Weather Reports


Display with metric or nautical units.
time (UTC)temp
F
wind
direction
speed
MPH
gust
MPH
rain 1hr
in
rain 24hr
in
rain mn
in
humidity
%
barometer
mb
20260906152055 92 284 0.0 2.0 0.00 0.00 0.00 68
20260906150556 91 284 0.0 4.0 0.00 0.00 0.00 69
20260906145056 91 284 0.0 2.0 0.00 0.00 0.00 68
20260906143557 90 284 0.0 1.0 0.00 0.00 0.00 69
20260906142116 89 284 0.0 0.0 0.00 0.00 0.00 73
20260906140603 87 284 0.0 0.0 0.00 0.00 0.00 75
20260906135105 85 284 0.0 0.0 0.00 0.00 0.00 78
20260906133608 84 284 0.0 0.0 0.00 0.00 0.00 80
20260906132110 82 284 0.0 0.0 0.00 0.00 0.00 82
20260906130550 81 284 0.0 0.0 0.00 0.00 0.00 83
20260906125053 80 284 0.0 0.0 0.00 0.00 0.00 84
20260906123555 79 284 0.0 0.0 0.00 0.00 0.00 84
20260906122115 79 284 0.0 1.0 0.00 0.00 0.00 83
20260906120602 79 284 0.0 0.0 0.00 0.00 0.00 84
20260906115116 80 284 0.0 1.0 0.00 0.00 0.00 82
20260906113557 80 284 0.0 0.0 0.00 0.00 0.00 80
20260906112058 81 284 0.0 1.0 0.00 0.00 0.00 81
20260906110559 81 284 0.0 0.0 0.00 0.00 0.00 80
20260906105102 81 284 0.0 0.0 0.00 0.00 0.00 79
20260906103607 81 284 0.0 0.0 0.00 0.00 0.00 80
20260906102109 81 284 0.0 0.0 0.00 0.00 0.00 79
20260906100554 81 284 0.0 0.0 0.00 0.00 0.00 78
20260906095051 82 284 0.0 0.0 0.00 0.00 0.00 78
20260906093616 82 284 0.0 0.0 0.00 0.00 0.00 77
20260906092052 82 284 0.0 0.0 0.00 0.00 0.00 77
20260906090553 82 284 0.0 0.0 0.00 0.00 0.00 77
20260906085054 83 284 0.0 0.0 0.00 0.00 0.00 76
20260906083555 83 284 0.0 0.0 0.00 0.00 0.00 76
20260906082050 82 284 0.0 0.0 0.00 0.00 0.00 75
20260906010559 90 284 0.0 1.0 0.00 0.00 0.00 65
20260906005051 91 284 0.0 0.0 0.00 0.00 0.00 64
20260906003556 92 284 0.0 0.0 0.00 0.00 0.00 62
20260906002056 93 284 0.0 2.0 0.00 0.00 0.00 60
20260906000619 95 284 0.0 0.0 0.00 0.00 0.00 58
20260905235101 95 284 0.0 0.0 0.00 0.00 0.00 58
20260905233605 96 284 0.0 0.0 0.00 0.00 0.00 56
20260905232114 97 284 0.0 0.0 0.00 0.00 0.00 56
20260905230557 97 284 0.0 0.0 0.00 0.00 0.00 53
20260905225056 98 284 0.0 0.0 0.00 0.00 0.00 53
20260905223559 98 284 0.0 0.0 0.00 0.00 0.00 51
20260905222102 99 284 0.0 0.0 0.00 0.00 0.00 51
20260905220550 99 284 0.0 0.0 0.00 0.00 0.00 50
20260905215050 99 284 0.0 1.0 0.00 0.00 0.00 49
20260905213554 100 284 0.0 0.0 0.00 0.00 0.00 46
20260905212100 100 284 0.0 1.0 0.00 0.00 0.00 44
20260905210624 100 283 0.0 0.0 0.00 0.00 0.00 47
20260905205058 100 360 0.0 0.0 0.00 0.00 0.00 47
20260905203604 99 360 0.0 0.0 0.00 0.00 0.00 49
20260905202106 99 360 0.0 2.0 0.00 0.00 0.00 49
20260905200551 99 304 0.0 2.0 0.00 0.00 0.00 46
20260905195051 100 306 0.0 2.0 0.00 0.00 0.00 47
20260905193554 100 231 0.0 1.0 0.00 0.00 0.00 46
20260905192102 100 273 0.0 2.0 0.00 0.00 0.00 47
20260905190605 100 269 0.0 0.0 0.00 0.00 0.00 48
20260905185058 98 300 0.0 0.0 0.00 0.00 0.00 50
20260905183604 98 300 0.0 2.0 0.00 0.00 0.00 51
20260905182058 97 300 0.0 0.0 0.00 0.00 0.00 53
20260905180604 98 300 0.0 0.0 0.00 0.00 0.00 50
20260905175101 99 300 0.0 0.0 0.00 0.00 0.00 51
20260905173603 98 300 0.0 0.0 0.00 0.00 0.00 51
20260905172108 97 300 0.0 0.0 0.00 0.00 0.00 54
20260905170609 97 300 0.0 0.0 0.00 0.00 0.00 54
20260905165051 95 300 0.0 0.0 0.00 0.00 0.00 57
20260905163552 95 300 0.0 2.0 0.00 0.00 0.00 61
20260905162050 94 300 0.0 0.0 0.00 0.00 0.00 63
20260905160556 93 299 0.0 0.0 0.00 0.00 0.00 62
20260905155118 92 299 0.0 0.0 0.00 0.00 0.00 65
20260905153554 92 299 0.0 0.0 0.00 0.00 0.00 64